Location: Unspecified
(0.0000°N, 0.0000°E)
Time: 19:18:57
(UTC+00:00)

Explorer 7 - Visible Passes

Search period start: 31 October 2014 00:00
Search period end: 10 November 2014 00:00
Orbit: 491 x 704 km, 50.3° (Epoch: 31 October)

Date Brightness Start Highest point End Pass type
(mag) Time Alt. Az. Time Alt. Az. Time Alt. Az.
04 Nov 9.4 19:26:24 10° S 19:26:27 10° S 19:26:27 10° S visible
05 Nov 8.8 19:35:17 10° SSW 19:36:34 19° SSW 19:36:34 19° SSW visible
06 Nov 8.8 19:45:04 10° SW 19:46:45 24° SW 19:46:45 24° SW visible
07 Nov 8.5 18:15:36 10° SSE 18:18:01 16° SE 18:20:18 10° E visible
07 Nov 9.4 19:55:42 10° WSW 19:56:59 16° W 19:56:59 16° W visible
08 Nov 7.2 18:24:17 10° SSW 18:27:54 40° SE 18:30:34 16° ENE visible
09 Nov 6.8 18:33:56 10° SW 18:37:44 68° NW 18:40:50 14° NNE visible
